Find Starlink 5468

NORAD ID: 54777 Int'l Des: 2022-175 Owner: SPXS Country: US Constellation: starlink operational
LEOCIRCULAR

現在のビュー

3D地球を読み込み中...

About Starlink 5468

Starlink 5468 (NORAD 54777) is a starlink constellation satellite (v1.5) launched Dec 17, 2022 by SPXS of US. It operates in LEO, CIRCULAR orbit with a mass of 305.00 kg.

次回通過

Passes for default location (London). Set your location on the main map for personalized predictions.

高度履歴

Loading altitude history...

軌道要素

1 54777U 22175V 26265.54024444 -.00001930 00000-0 -46032-4 0 9999
2 54777 53.1572 228.0518 0001532 75.7872 284.3301 15.34372684209801
Epoch: Sep 22, 2026 • Age: 18 hours

現在のステータス

高度 469.6 km
遠地点 / 近地点 N/A
速度 7.63 km/s
衛星直下点 -21.78°S, 46.23°W
打ち上げ日 Dec 17, 2022
運用期間 3.7 years
タイプ internet

技術仕様

分類 Payload
質量 305.00 kg
乾燥質量 290.00 kg
長さ 0.20 m
スパン 9.00 m
形状 ? Box + pan
製造者 SPXS
バスタイプ Starlink
フェーズステータス In Orbit
所有者/国 SPXS/US

Most Searched